Temperature
15 15 15 14 14 14 15 15 15 15 15 15 15 15 15 15 16 16 16 16 16 16 16 17 17 17 17 17 17 17 17 17 17 17 17 17 17 17 17 17 17 17 18
15 15 14 14 14 14 14 15 15 15 15 15 15 15 15 15 16 16 16 16 16 16 16 16 17 17 17 17 17 17 17 17 17 17 17 17 17 17 17 17 17 17 17
15 15 14 14 14 14 14 14 15 15 15 15 15 15 15 15 15 15 16 16 16 16 16 16 16 17 17 17 17 17 17 17 17 17 17 17 17 17 17 17 17 17 17
15 15 14 14 14 14 14 14 15 15 15 15 15 15 15 15 15 15 15 16 16 16 16 16 16 16 16 17 17 17 17 17 17 17 17 17 17 17 17 17 17 17 17
15 15 14 14 14 14 14 14 14 15 15 15 15 15 15 15 15 15 15 15 15 16 16 16 16 16 16 16 16 17 17 17 17 17 17 17 17 17 17 17 17 17 17
15 15 14 14 14 14 14 14 14 15 15 15 15 15 15 15 15 15 15 15 15 15 15 16 16 16 16 16 16 16 17 17 17 17 17 17 17 17 17 17 17 17 17
15 15 14 14 14 14 14 14 14 15 15 15 15 15 15 15 15 15 15 15 15 15 15 15 16 16 16 16 16 16 16 16 16 17 17 17 17 17 17 17 17 17 17
15 15 15 14 14 14 14 14 14 14 14 14 15 15 15 15 15 15 15 15 15 15 15 15 15 16 16 16 16 16 16 16 16 16 17 17 17 17 17 17 17 17 17
15 15 15 15 14 14 14 14 14 14 14 14 14 14 14 14 14 15 15 15 15 15 15 15 15 15 15 16 16 16 16 16 16 16 16 16 16 17 17 17 17 17 17
15 15 14 14 14 14 14 14 14 14 14 14 14 14 14 14 14 14 14 15 15 15 15 15 15 15 15 15 16 16 16 16 16 16 16 16 16 16 16 16 17 17 17
15 14 14 14 14 14 14 14 14 14 14 14 14 14 14 14 14 13 14 14 15 15 15 15 15 15 15 15 15 15 15 16 16 16 16 16 16 16 16 16 16 17 17
15 14 14 14 14 14 14 14 14 14 14 14 14 14 14 14 13 13 13 14 14 15 15 15 15 15 15 15 15 15 15 15 16 16 16 16 16 16 16 16 16 16 16
14 14 14 14 14 14 14 14 14 14 14 14 14 14 14 13 13 13 13 13 14 14 14 15 15 15 15 15 15 15 15 15 15 15 15 16 16 16 16 16 16 16 16
14 14 14 14 14 14 14 14 13 13 13 13 13 13 13 13 13 13 13 13 13 14 14 14 14 14 15 15 15 15 15 15 15 15 15 15 15 16 16 16 16 16 16
14 14 14 14 14 14 13 13 13 13 13 13 13 13 13 13 13 13 13 13 13 13 13 14 14 14 14 14 14 14 14 15 15 15 15 15 15 15 15 15 15 16 16
14 14 14 14 13 13 13 13 13 13 13 13 13 13 13 13 13 13 13 13 13 13 13 13 14 14 14 14 14 14 14 14 14 15 15 15 15 15 15 15 15 15 15
13 13 13 13 13 13 13 13 13 13 13 12 12 12 12 12 12 13 13 13 13 13 13 13 13 14 14 14 14 14 14 14 14 14 14 14 14 15 15 15 15 15 15
13 13 13 13 12 12 12 12 12 12 12 12 12 12 12 12 12 12 12 12 12 12 12 12 13 13 13 13 13 14 14 14 14 14 14 14 14 14 14 14 15 15 15
13 13 12 12 12 12 12 12 12 12 11 11 11 11 11 11 12 12 12 12 12 12 12 12 12 12 13 13 13 13 13 13 13 14 14 14 14 14 14 14 14 14 14
13 12 12 12 12 12 12 11 11 11 11 11 11 11 11 11 11 11 11 11 11 12 12 12 12 12 12 12 12 13 13 13 13 13 13 13 13 14 14 14 14 14 14
12 12 12 12 12 12 11 11 11 11 11 11 11 11 11 10 10 11 11 11 11 11 11 11 11 11 12 12 12 12 12 12 13 13 13 13 13 13 13 13 13 13 14
12 12 12 12 12 11 11 11 11 11 11 11 10 10 10 10 10 10 10 10 10 10 10 11 11 11 11 11 12 12 12 12 12 12 12 12 12 13 13 13 13 13 13
12 12 12 12 11 11 11 11 11 10 10 10 10 10 10 10 10 10 10 10 10 10 10 10 10 10 11 11 11 11 11 11 12 12 12 12 12 12 12 13 13 13 13
12 11 11 11 11 11 11 11 10 10 10 10 10 10 10 10 10 9 10 10 10 10 10 10 10 10 10 11 10 11 11 11 11 11 11 11 12 12 12 12 12 12 12
11 11 11 11 11 11 10 10 10 10 10 10 10 9 9 9 9 9 9 9 9 10 10 10 10 10 10 10 10 10 10 10 11 11 11 11 12 12 12 12 12 12 12
11 11 11 11 10 10 10 10 10 9 9 9 9 9 9 9 9 9 9 9 9 9 9 9 9 10 10 10 10 10 10 10 10 10 11 11 11 11 11 11 12 12 12
Wind_Speed
2 3 4 5 6 6 5 5 5 5 5 5 5 5 4 4 4 4 5 7 6 4 3 2 2 1 1 2 3 3 4 5 6 7 8 8 8 8 9 9 10 11 11
3 3 3 4 5 6 5 4 4 4 3 3 4 4 4 4 4 5 5 6 7 6 4 2 2 1 1 2 2 3 4 5 6 6 7 7 7 8 8 8 9 10 11
4 3 3 3 4 6 6 5 5 4 4 4 5 4 3 4 4 5 5 5 6 6 5 3 2 1 0 2 3 3 3 4 5 6 6 7 7 7 8 8 8 8 10
4 4 3 3 5 6 4 3 4 4 4 4 4 4 4 3 4 4 5 5 5 5 5 4 2 2 1 1 2 3 3 4 5 5 6 6 6 7 7 7 7 8 9
5 4 2 3 5 4 4 4 4 3 3 4 3 4 4 4 4 4 5 5 5 5 5 4 3 3 2 1 2 3 3 4 4 5 6 6 6 6 7 7 7 8 8
5 4 3 4 4 3 4 4 4 3 2 3 3 4 4 4 4 4 4 5 5 5 5 5 4 4 3 1 1 2 3 4 4 4 6 7 7 6 7 7 7 7 8
5 4 2 3 3 3 3 3 2 4 4 3 3 4 4 4 5 4 4 4 5 5 6 5 4 3 3 2 2 1 2 4 5 5 5 6 7 7 7 7 7 7 8
6 4 3 3 3 3 4 4 3 2 3 4 3 3 4 5 4 5 4 4 4 4 4 5 4 3 3 2 2 2 1 2 4 5 5 6 6 7 7 7 7 7 8
7 6 5 3 3 3 3 3 3 3 2 3 3 2 2 1 3 4 4 4 5 4 4 4 4 3 2 2 1 2 1 1 2 4 5 6 7 7 8 8 8 8 8
7 7 6 5 4 3 3 3 2 1 1 2 2 2 1 2 0 3 4 4 4 4 4 4 4 4 3 2 1 1 1 1 2 3 4 5 7 8 8 9 9 9 9
7 7 6 5 4 4 4 4 3 2 1 1 1 1 1 2 1 1 3 5 4 3 3 3 3 3 3 3 2 2 2 2 3 3 4 5 6 7 8 9 9 9 10
4 6 7 5 4 3 4 4 3 3 2 1 1 0 0 0 0 1 1 3 3 4 3 3 2 2 3 3 2 2 2 2 2 3 3 4 4 6 8 9 9 10 10
3 5 5 4 4 4 4 4 4 4 3 2 1 1 1 1 1 2 1 1 2 3 3 3 2 3 3 3 3 3 3 3 3 3 4 4 5 6 7 8 9 9 10
2 3 4 4 4 5 5 4 3 3 3 3 4 2 1 2 1 1 2 1 1 2 2 3 3 2 3 4 4 4 4 4 4 5 5 4 5 5 5 6 7 7 9
2 3 4 4 4 4 4 3 3 4 4 3 3 3 2 2 2 1 1 2 2 1 3 3 3 3 3 4 4 3 4 5 5 5 5 4 4 4 5 5 5 7 9
3 3 4 4 4 4 4 4 3 4 4 4 3 4 4 3 3 2 1 1 2 2 2 2 2 3 3 4 4 4 5 5 5 4 4 4 4 5 5 5 5 5 7
3 3 3 3 4 4 4 4 4 4 4 5 5 4 5 4 3 3 2 1 1 2 3 4 2 3 3 3 4 4 4 4 4 5 5 5 6 6 5 5 6 6 6
2 2 3 3 3 4 4 3 4 4 4 4 5 5 5 5 4 3 3 2 2 2 3 4 3 3 3 3 3 3 3 3 3 4 5 5 6 6 6 5 5 6 6
2 3 3 3 3 3 3 3 2 3 3 3 4 4 5 5 5 4 4 3 3 3 2 3 4 3 3 2 2 3 3 3 3 4 4 5 5 6 6 6 6 6 7
1 2 2 2 3 3 3 3 3 3 3 4 4 4 4 4 4 5 4 4 3 3 3 3 4 3 3 3 2 2 3 2 3 3 3 3 4 5 6 7 7 7 7
1 1 2 3 3 3 3 3 3 3 3 4 5 5 5 6 7 5 4 3 3 3 3 3 4 3 3 3 3 3 3 3 3 2 2 2 2 3 4 6 7 8 8
2 2 2 3 4 4 7 7 4 3 3 4 5 6 6 6 8 9 9 7 5 4 4 4 4 5 6 5 4 3 3 3 3 2 2 3 2 3 4 5 7 8 9
1 2 3 3 4 6 8 9 8 4 3 4 5 5 6 7 8 5 8 9 8 9 8 6 6 7 6 6 5 5 5 5 6 4 2 4 3 4 4 6 8 10 10
1 2 3 3 4 6 9 9 9 4 3 4 5 5 6 7 7 7 6 7 7 7 8 6 7 8 8 7 7 7 7 5 4 3 4 4 4 4 4 5 8 10 11
2 2 3 3 4 7 9 9 8 3 3 5 5 5 6 6 11 11 7 7 8 8 9 11 11 11 12 12 8 4 4 4 5 5 4 4 4 3 3 4 6 10 11
2 2 3 3 4 6 9 9 8 2 4 5 5 6 9 10 13 13 7 6 9 9 8 8 9 10 8 9 10 7 6 6 5 5 5 5 4 3 3 3 3 5 7
Wind_Direction
37 25 13 13 9 7 7 3 2 3 5 5 9 9 1 359 353 348 344 347 355 350 333 309 299 263 176 153 139 137 134 127 127 124 122 119 115 114 110 105 107 105 104
55 35 16 11 7 4 2 3 1 1 0 3 7 6 2 3 3 357 351 352 358 356 342 320 309 289 177 159 151 150 148 143 140 132 130 129 127 122 117 112 110 110 108
51 42 24 7 357 359 4 10 8 12 15 14 9 1 10 12 11 2 357 357 357 357 353 343 337 334 246 186 171 157 150 149 146 144 138 135 135 131 127 122 118 117 114
45 43 27 2 356 6 12 10 11 13 15 13 5 2 8 10 10 8 12 12 7 359 354 357 3 345 293 215 182 170 156 149 155 161 156 150 144 143 137 134 130 129 124
38 44 31 4 5 13 12 11 21 20 11 5 4 14 13 17 11 16 15 15 14 12 6 6 5 347 322 231 199 182 169 159 158 167 166 161 157 157 155 147 140 139 137
25 34 27 10 13 19 13 13 18 19 14 360 14 20 13 13 17 20 12 13 17 19 19 17 14 357 4 8 268 218 190 177 167 171 173 171 169 167 165 162 155 150 148
19 25 19 9 13 20 8 7 14 21 13 0 24 10 1 12 26 22 10 12 12 12 19 18 15 13 7 20 341 276 215 195 185 177 178 177 178 180 175 178 174 167 163
16 20 24 11 7 12 14 17 27 24 13 19 46 44 6 353 357 6 7 16 8 10 16 15 15 16 14 22 356 334 293 221 206 200 191 185 184 188 184 185 188 186 179
20 23 19 14 9 21 8 3 20 50 23 9 38 88 82 333 325 337 356 6 5 9 1 2 12 13 14 15 357 334 301 269 240 221 209 199 195 195 193 192 195 197 192
22 23 23 23 19 16 8 356 27 40 67 13 8 35 112 171 101 336 334 343 354 3 354 353 358 3 3 3 356 340 303 262 259 256 240 221 214 209 203 201 202 203 200
18 20 24 24 20 17 10 8 15 31 53 53 11 11 42 47 94 159 313 327 339 341 345 340 343 349 347 350 340 331 320 284 261 261 260 243 229 221 214 208 206 207 207
7 15 21 22 17 15 14 12 14 23 24 37 31 70 135 143 234 175 251 307 319 318 330 333 334 332 332 337 324 326 316 294 274 270 261 249 241 230 222 217 214 212 214
5 357 10 10 10 8 16 21 25 20 14 15 0 325 261 236 216 186 199 275 315 315 327 331 320 329 328 331 323 320 307 294 272 261 260 252 245 238 226 220 220 217 216
338 340 359 8 11 16 23 25 23 9 14 13 10 3 343 309 266 217 200 203 319 329 330 311 320 325 330 327 314 310 299 286 274 259 253 249 242 232 229 226 221 217 217
2 4 10 10 10 17 22 25 24 10 8 3 357 0 358 335 330 285 232 205 192 291 302 297 310 321 328 322 316 308 298 286 276 264 251 239 232 229 226 227 232 229 224
11 16 18 16 14 13 16 26 17 5 17 4 357 3 355 338 339 333 298 245 216 210 257 278 281 300 310 311 312 307 298 292 283 272 257 238 219 216 218 219 225 228 224
13 16 11 18 17 13 10 19 11 12 12 2 0 360 346 334 340 336 327 298 254 216 248 280 279 298 301 300 312 312 302 291 283 272 260 243 223 214 214 218 221 223 217
5 7 12 19 12 9 6 11 360 3 1 351 343 347 339 340 337 329 325 310 284 248 235 272 293 301 292 286 292 296 306 294 278 272 255 244 227 215 214 217 218 220 217
12 9 14 6 355 351 352 350 349 345 340 331 328 330 325 333 327 320 315 309 297 294 262 259 278 280 283 293 300 297 292 297 286 272 258 245 229 218 213 215 217 218 217
1 351 350 342 335 332 330 335 340 335 328 323 318 315 314 311 301 307 314 310 306 303 297 279 280 286 277 279 266 275 290 284 284 291 280 252 234 224 221 220 219 219 216
329 328 343 341 334 324 325 328 320 316 314 318 318 311 305 309 313 312 313 308 308 296 292 288 284 288 281 273 262 254 260 277 277 262 264 260 242 241 239 229 223 220 216
327 342 332 326 327 326 330 332 321 303 302 304 307 309 308 309 315 319 314 308 300 291 281 271 273 274 271 262 261 254 246 260 269 244 228 261 233 239 243 233 225 219 215
315 322 316 318 311 309 324 330 325 313 292 290 292 298 307 314 318 309 309 313 304 295 282 265 259 261 264 259 253 256 246 240 246 236 216 252 238 241 246 240 227 221 215
283 291 300 304 306 314 329 331 330 330 295 289 285 281 284 293 298 300 300 301 293 290 282 276 257 256 259 257 243 248 248 254 264 249 209 238 239 240 241 242 231 220 213
279 280 286 297 302 310 324 328 330 319 307 300 294 290 287 284 296 304 300 297 298 294 290 285 281 276 273 273 264 251 243 243 263 255 218 219 233 238 242 242 236 218 210
259 280 293 292 289 296 315 325 327 310 305 304 303 298 300 300 303 306 293 285 289 290 292 295 294 290 283 276 263 237 229 238 251 253 223 203 217 208 246 249 232 219 208
Height
1539 1537 1536 1535 1534 1533 1532 1530 1529 1528 1527 1527 1526 1526 1526 1527 1527 1527 1527 1527 1528 1528 1528 1529 1529 1529 1530 1530 1531 1531 1531 1532 1532 1533 1534 1535 1536 1536 1537 1537 1538 1538 1538
1540 1538 1537 1536 1534 1533 1532 1531 1529 1528 1527 1527 1526 1526 1526 1526 1527 1527 1527 1527 1528 1528 1528 1528 1529 1529 1530 1531 1531 1532 1533 1533 1534 1535 1536 1537 1538 1539 1539 1540 1540 1541 1541
1540 1539 1538 1536 1535 1533 1532 1531 1530 1529 1528 1527 1527 1526 1526 1526 1526 1527 1527 1527 1527 1527 1528 1528 1529 1529 1530 1531 1532 1532 1533 1534 1535 1536 1537 1538 1539 1540 1541 1542 1542 1543 1544
1541 1540 1539 1537 1536 1534 1533 1531 1530 1529 1528 1527 1527 1526 1526 1526 1526 1527 1527 1527 1527 1527 1528 1528 1529 1529 1530 1531 1532 1533 1534 1535 1536 1537 1538 1539 1540 1541 1542 1543 1544 1545 1546
1542 1541 1540 1538 1537 1535 1534 1532 1531 1530 1529 1528 1527 1527 1526 1526 1526 1527 1527 1527 1527 1528 1528 1528 1529 1529 1530 1531 1532 1533 1534 1535 1536 1537 1539 1540 1541 1542 1543 1544 1545 1546 1547
1543 1542 1541 1539 1538 1536 1534 1533 1532 1531 1530 1529 1528 1528 1527 1527 1527 1527 1527 1527 1528 1528 1528 1528 1529 1530 1530 1531 1532 1533 1534 1535 1536 1538 1539 1540 1541 1543 1544 1545 1546 1547 1548
1544 1543 1541 1540 1539 1537 1535 1534 1533 1532 1531 1530 1529 1529 1528 1528 1528 1527 1527 1528 1528 1528 1528 1528 1529 1530 1530 1531 1532 1533 1534 1535 1536 1537 1538 1540 1541 1543 1544 1545 1547 1548 1549
1545 1543 1542 1541 1540 1538 1537 1535 1534 1533 1532 1531 1530 1529 1529 1530 1529 1528 1528 1528 1528 1528 1528 1528 1529 1529 1530 1531 1532 1532 1533 1535 1536 1537 1538 1540 1541 1543 1544 1545 1547 1548 1549
1545 1544 1543 1542 1541 1539 1538 1536 1535 1534 1533 1533 1532 1532 1531 1530 1529 1529 1529 1528 1528 1528 1528 1528 1529 1529 1530 1530 1531 1532 1533 1534 1535 1536 1537 1539 1540 1542 1543 1545 1546 1548 1549
1546 1545 1544 1543 1541 1540 1539 1538 1536 1535 1534 1534 1533 1532 1532 1531 1531 1530 1530 1529 1528 1528 1528 1528 1528 1529 1529 1530 1530 1531 1532 1533 1534 1535 1536 1538 1539 1541 1542 1544 1545 1547 1548
1546 1545 1544 1543 1542 1541 1540 1538 1537 1536 1535 1534 1533 1532 1532 1531 1531 1530 1529 1528 1528 1528 1528 1528 1528 1528 1528 1529 1529 1530 1531 1532 1532 1533 1535 1536 1538 1539 1541 1542 1544 1545 1547
1546 1546 1545 1544 1542 1541 1540 1539 1538 1537 1535 1534 1534 1533 1532 1531 1531 1530 1529 1528 1527 1527 1527 1527 1527 1527 1527 1528 1528 1529 1529 1530 1531 1532 1533 1534 1535 1537 1538 1540 1541 1543 1544
1546 1545 1545 1544 1543 1541 1540 1539 1538 1537 1536 1535 1534 1533 1532 1531 1531 1530 1529 1528 1527 1526 1526 1526 1526 1526 1526 1527 1527 1527 1528 1529 1529 1530 1531 1532 1533 1534 1536 1537 1539 1540 1542
1546 1545 1545 1544 1542 1541 1540 1539 1538 1537 1535 1534 1533 1532 1531 1531 1530 1529 1528 1528 1526 1525 1525 1525 1525 1525 1525 1525 1525 1525 1526 1526 1527 1528 1529 1530 1531 1532 1533 1534 1536 1538 1539
1546 1545 1544 1543 1542 1541 1540 1539 1537 1536 1535 1534 1533 1532 1531 1530 1529 1528 1527 1527 1527 1524 1523 1523 1524 1524 1523 1523 1523 1523 1523 1524 1525 1525 1526 1527 1528 1529 1530 1531 1533 1534 1536
1545 1545 1544 1542 1541 1540 1539 1538 1536 1535 1534 1533 1532 1531 1529 1529 1528 1527 1526 1525 1525 1524 1522 1521 1522 1522 1521 1521 1521 1521 1521 1521 1521 1522 1523 1524 1525 1526 1527 1528 1529 1531 1532
1545 1544 1543 1542 1540 1539 1538 1537 1536 1534 1533 1532 1530 1529 1528 1527 1526 1525 1524 1523 1523 1522 1520 1519 1519 1519 1519 1518 1518 1518 1518 1518 1518 1519 1519 1520 1521 1522 1523 1524 1526 1527 1528
1544 1543 1542 1541 1540 1539 1537 1536 1534 1533 1532 1530 1529 1528 1526 1525 1524 1523 1522 1521 1520 1519 1518 1516 1516 1516 1516 1516 1515 1515 1515 1515 1515 1515 1516 1517 1518 1519 1520 1520 1522 1523 1524
1543 1542 1541 1540 1539 1538 1536 1535 1533 1532 1530 1529 1527 1526 1525 1523 1522 1521 1519 1519 1518 1517 1515 1514 1512 1512 1512 1512 1512 1511 1511 1511 1511 1512 1512 1513 1514 1515 1515 1516 1517 1518 1520
1542 1541 1540 1539 1538 1536 1535 1533 1532 1530 1529 1527 1526 1524 1523 1521 1520 1518 1517 1516 1515 1513 1512 1511 1509 1509 1508 1508 1508 1507 1507 1507 1507 1508 1508 1509 1509 1510 1511 1512 1513 1514 1515
1541 1540 1539 1538 1536 1535 1533 1532 1530 1528 1526 1525 1523 1522 1520 1519 1517 1516 1514 1513 1511 1510 1509 1507 1506 1505 1504 1504 1504 1504 1503 1503 1503 1504 1504 1504 1505 1505 1506 1507 1508 1509 1510
1539 1538 1537 1536 1534 1533 1531 1529 1528 1526 1524 1522 1520 1519 1517 1516 1514 1512 1511 1510 1508 1507 1505 1503 1502 1501 1500 1500 1500 1500 1499 1499 1498 1500 1500 1499 1500 1500 1501 1502 1503 1504 1505
1537 1536 1535 1533 1532 1530 1529 1527 1525 1523 1521 1519 1517 1515 1514 1512 1510 1508 1507 1505 1504 1502 1501 1500 1497 1496 1496 1495 1495 1495 1495 1494 1494 1494 1495 1494 1495 1495 1496 1497 1498 1499 1500
1534 1533 1532 1531 1529 1528 1526 1524 1522 1520 1518 1516 1514 1512 1510 1508 1506 1504 1501 1500 1498 1497 1496 1494 1492 1491 1491 1490 1490 1490 1489 1489 1489 1489 1490 1489 1489 1489 1491 1491 1493 1494 1495
1532 1530 1529 1528 1526 1525 1523 1520 1518 1516 1514 1512 1510 1508 1506 1504 1502 1499 1497 1494 1492 1491 1490 1488 1487 1485 1485 1484 1484 1484 1483 1483 1482 1482 1484 1483 1483 1484 1485 1485 1487 1488 1490
1529 1527 1526 1525 1523 1521 1519 1517 1515 1512 1510 1508 1506 1504 1502 1499 1497 1495 1492 1489 1487 1484 1483 1481 1480 1479 1478 1478 1478 1478 1477 1477 1476 1475 1476 1478 1477 1478 1479 1479 1481 1482 1484